| time (UTC) | temp F | wind direction | speed MPH | gust MPH | rain 1hr in | rain 24hr in | rain mn in | humidity % | barometer mb |
| 20260507144543 | 51 | 342 | 4.0 | 9.0 | 0.00 | 0.00 | 0.00 | 52 | 1013.3 |
| 20260507143044 | 49 | 354 | 4.0 | 8.0 | 0.00 | 0.00 | 0.00 | 54 | 1013.2 |
| 20260507141539 | 48 | 347 | 6.0 | 9.0 | 0.00 | 0.00 | 0.00 | 55 | 1013.2 |
| 20260507140037 | 47 | 347 | 5.0 | 7.0 | 0.00 | 0.00 | 0.00 | 61 | 1013.0 |
| 20260507134534 | 47 | 337 | 4.0 | 7.0 | 0.00 | 0.00 | 0.00 | 63 | 1012.8 |
| 20260507133037 | 46 | 338 | 3.0 | 7.0 | 0.00 | 0.00 | 0.00 | 62 | 1012.7 |
| 20260507131537 | 45 | 349 | 5.0 | 9.0 | 0.00 | 0.00 | 0.00 | 63 | 1012.6 |
| 20260507130033 | 45 | 4 | 6.0 | 10.0 | 0.00 | 0.00 | 0.00 | 65 | 1012.4 |
| 20260507124525 | 45 | 354 | 4.0 | 6.0 | 0.00 | 0.00 | 0.00 | 71 | 1012.2 |
| 20260507123024 | 45 | 354 | 2.0 | 4.0 | 0.00 | 0.00 | 0.00 | 63 | 1012.1 |
| 20260507121521 | 45 | 347 | 1.0 | 4.0 | 0.00 | 0.00 | 0.00 | 59 | 1011.9 |
| 20260507120019 | 46 | 355 | 1.0 | 4.0 | 0.00 | 0.00 | 0.00 | 53 | 1011.7 |
| 20260507114517 | 46 | 11 | 2.0 | 6.0 | 0.00 | 0.00 | 0.00 | 50 | 1011.7 |
| 20260507113019 | 45 | 343 | 2.0 | 8.0 | 0.00 | 0.00 | 0.00 | 55 | 1011.5 |
| 20260507111517 | 45 | 344 | 2.0 | 10.0 | 0.00 | 0.00 | 0.00 | 61 | 1011.4 |
| 20260507110012 | 45 | 274 | 1.0 | 4.0 | 0.00 | 0.00 | 0.00 | 66 | 1011.3 |
| 20260507104509 | 45 | 347 | 2.0 | 4.0 | 0.00 | 0.00 | 0.00 | 63 | 1011.4 |
| 20260507103005 | 46 | 2 | 3.0 | 6.0 | 0.00 | 0.00 | 0.00 | 56 | 1011.3 |
| 20260507101506 | 45 | 18 | 3.0 | 5.0 | 0.00 | 0.00 | 0.00 | 52 | 1011.3 |
| 20260507100008 | 44 | 33 | 3.0 | 5.0 | 0.00 | 0.00 | 0.00 | 52 | 1011.2 |
| 20260507094601 | 45 | 12 | 2.0 | 4.0 | 0.00 | 0.00 | 0.00 | 49 | 1011.4 |
| 20260507093056 | 46 | 30 | 3.0 | 9.0 | 0.00 | 0.00 | 0.00 | 50 | 1011.1 |
| 20260507091552 | 47 | 49 | 4.0 | 9.0 | 0.00 | 0.00 | 0.00 | 53 | 1010.6 |
| 20260507090056 | 48 | 77 | 1.0 | 3.0 | 0.00 | 0.00 | 0.00 | 49 | 1010.4 |
| 20260507084549 | 48 | 46 | 0.0 | 1.0 | 0.00 | 0.00 | 0.00 | 47 | 1010.3 |
| 20260507083045 | 49 | 333 | 0.0 | 0.0 | 0.00 | 0.00 | 0.00 | 45 | 1010.4 |
| 20260507081541 | 51 | 98 | 0.0 | 0.0 | 0.00 | 0.00 | 0.00 | 43 | 1010.1 |
| 20260507080045 | 53 | 69 | 0.0 | 0.0 | 0.00 | 0.00 | 0.00 | 44 | 1010.0 |
| 20260507074535 | 52 | 85 | 0.0 | 0.0 | 0.00 | 0.00 | 0.00 | 42 | 1009.6 |
| 20260507073039 | 54 | 123 | 0.0 | 0.0 | 0.00 | 0.00 | 0.00 | 43 | 1009.5 |
| 20260507071529 | 55 | 79 | 0.0 | 0.0 | 0.00 | 0.00 | 0.00 | 37 | 1009.5 |
| 20260507070025 | 56 | 131 | 0.0 | 0.0 | 0.00 | 0.00 | 0.00 | 38 | 1009.2 |
| 20260507064523 | 57 | 131 | 0.0 | 0.0 | 0.00 | 0.00 | 0.00 | 38 | 1008.9 |
| 20260507063018 | 58 | 63 | 0.0 | 0.0 | 0.00 | 0.00 | 0.00 | 31 | 1009.6 |
| 20260507061516 | 58 | 52 | 0.0 | 0.0 | 0.00 | 0.00 | 0.00 | 29 | 1009.3 |
| 20260507060019 | 59 | 92 | 0.0 | 0.0 | 0.00 | 0.00 | 0.00 | 31 | 1008.6 |
| 20260507054512 | 59 | 141 | 0.0 | 0.0 | 0.00 | 0.00 | 0.00 | 37 | 1008.3 |
| 20260507053012 | 59 | 68 | 0.0 | 0.0 | 0.00 | 0.00 | 0.00 | 41 | 1008.1 |
| 20260507051512 | 58 | 102 | 1.0 | 3.0 | 0.00 | 0.00 | 0.00 | 48 | 1008.0 |
| 20260507050033 | 60 | 238 | 3.0 | 3.0 | 0.00 | 0.00 | 0.00 | 38 | 1008.0 |
| 20260507044509 | 61 | 259 | 3.0 | 5.0 | 0.00 | 0.00 | 0.00 | 40 | 1008.1 |
| 20260507043009 | 62 | 286 | 1.0 | 3.0 | 0.00 | 0.00 | 0.00 | 35 | 1008.1 |
| 20260507041510 | 64 | 51 | 0.0 | 1.0 | 0.00 | 0.00 | 0.00 | 33 | 1008.1 |
| 20260507040006 | 65 | 31 | 0.0 | 2.0 | 0.00 | 0.00 | 0.00 | 29 | 1008.2 |
| 20260507034506 | 66 | 30 | 3.0 | 11.0 | 0.00 | 0.00 | 0.00 | 29 | 1008.2 |
| 20260507033105 | 65 | 90 | 15.0 | 20.0 | 0.00 | 0.00 | 0.00 | 29 | 1008.4 |
| 20260507031502 | 63 | 49 | 6.0 | 9.0 | 0.00 | 0.00 | 0.00 | 33 | 1008.4 |
| 20260507030003 | 63 | 269 | 3.0 | 11.0 | 0.00 | 0.00 | 0.00 | 33 | 1008.1 |
| 20260507024502 | 63 | 269 | 4.0 | 5.0 | 0.00 | 0.00 | 0.00 | 39 | 1008.0 |
| 20260507023100 | 67 | 39 | 0.0 | 2.0 | 0.00 | 0.00 | 0.00 | 22 | 1007.8 |
| 20260507021637 | 68 | 39 | 1.0 | 2.0 | 0.00 | 0.00 | 0.00 | 21 | 1007.7 |
| 20260507020112 | 68 | 39 | 2.0 | 3.0 | 0.00 | 0.00 | 0.00 | 21 | 1007.7 |
| 20260507014622 | 69 | 46 | 2.0 | 5.0 | 0.00 | 0.00 | 0.00 | 21 | 1007.7 |
| 20260507013101 | 69 | 52 | 5.0 | 8.0 | 0.00 | 0.00 | 0.00 | 21 | 1007.7 |
| 20260507011601 | 69 | 33 | 7.0 | 10.0 | 0.00 | 0.00 | 0.00 | 20 | 1008.0 |
| 20260507010056 | 69 | 339 | 6.0 | 10.0 | 0.00 | 0.00 | 0.00 | 21 | 1007.9 |
| 20260507004554 | 70 | 333 | 4.0 | 6.0 | 0.00 | 0.00 | 0.00 | 22 | 1007.9 |
| 20260507003053 | 70 | 220 | 2.0 | 3.0 | 0.00 | 0.00 | 0.00 | 21 | 1007.9 |
| 20260507001600 | 71 | 238 | 3.0 | 5.0 | 0.00 | 0.00 | 0.00 | 22 | 1008.0 |
| 20260507000106 | 71 | 224 | 2.0 | 5.0 | 0.00 | 0.00 | 0.00 | 23 | 1008.1 |
| 20260506234601 | 72 | 192 | 2.0 | 5.0 | 0.00 | 0.00 | 0.00 | 26 | 1008.1 |
| 20260506233047 | 71 | 159 | 2.0 | 3.0 | 0.00 | 0.00 | 0.00 | 20 | 1008.3 |
| 20260506231537 | 71 | 126 | 0.0 | 4.0 | 0.00 | 0.00 | 0.00 | 21 | 1008.6 |
| 20260506230034 | 71 | 106 | 1.0 | 4.0 | 0.00 | 0.00 | 0.00 | 21 | 1008.7 |
| 20260506224532 | 69 | 194 | 2.0 | 4.0 | 0.00 | 0.00 | 0.00 | 24 | 1008.8 |
| 20260506223028 | 70 | 180 | 3.0 | 6.0 | 0.00 | 0.00 | 0.00 | 23 | 1009.1 |
| 20260506221524 | 70 | 169 | 2.0 | 5.0 | 0.00 | 0.00 | 0.00 | 20 | 1009.4 |
| 20260506220022 | 69 | 150 | 2.0 | 4.0 | 0.00 | 0.00 | 0.00 | 24 | 1009.7 |
| 20260506214518 | 68 | 115 | 2.0 | 6.0 | 0.00 | 0.00 | 0.00 | 23 | 1010.0 |
| 20260506213013 | 69 | 63 | 1.0 | 3.0 | 0.00 | 0.00 | 0.00 | 22 | 1010.3 |
| 20260506211515 | 67 | 334 | 1.0 | 7.0 | 0.00 | 0.00 | 0.00 | 21 | 1010.5 |
| 20260506210007 | 67 | 359 | 4.0 | 7.0 | 0.00 | 0.00 | 0.00 | 21 | 1010.7 |
| 20260506204504 | 66 | 336 | 4.0 | 10.0 | 0.00 | 0.00 | 0.00 | 21 | 1010.9 |
| 20260506203100 | 65 | 292 | 7.0 | 13.0 | 0.00 | 0.00 | 0.00 | 23 | 1011.2 |
| 20260506201559 | 64 | 299 | 7.0 | 13.0 | 0.00 | 0.00 | 0.00 | 22 | 1011.2 |
| 20260506200057 | 63 | 281 | 4.0 | 13.0 | 0.00 | 0.00 | 0.00 | 23 | 1011.5 |
| 20260506194551 | 63 | 342 | 3.0 | 9.0 | 0.00 | 0.00 | 0.00 | 24 | 1011.8 |
| 20260506193053 | 62 | 15 | 3.0 | 10.0 | 0.00 | 0.00 | 0.00 | 24 | 1012.0 |
| 20260506191547 | 62 | 264 | 3.0 | 9.0 | 0.00 | 0.00 | 0.00 | 25 | 1012.3 |
| 20260506190043 | 61 | 153 | 2.0 | 4.0 | 0.00 | 0.00 | 0.00 | 27 | 1012.6 |
| 20260506184540 | 61 | 134 | 1.0 | 3.0 | 0.00 | 0.00 | 0.00 | 27 | 1013.0 |
| 20260506183036 | 59 | 197 | 1.0 | 3.0 | 0.00 | 0.00 | 0.00 | 26 | 1013.2 |
| 20260506181542 | 58 | 205 | 3.0 | 6.0 | 0.00 | 0.00 | 0.00 | 24 | 1013.5 |
| 20260506180030 | 58 | 195 | 2.0 | 4.0 | 0.00 | 0.00 | 0.00 | 27 | 1013.9 |
| 20260506174530 | 57 | 164 | 2.0 | 5.0 | 0.00 | 0.00 | 0.00 | 25 | 1014.2 |
| 20260506173038 | 55 | 192 | 2.0 | 3.0 | 0.00 | 0.00 | 0.00 | 31 | 1014.4 |
| 20260506171520 | 53 | 126 | 2.0 | 4.0 | 0.00 | 0.00 | 0.00 | 32 | 1014.7 |
| 20260506170015 | 53 | 118 | 1.0 | 3.0 | 0.00 | 0.00 | 0.00 | 37 | 1015.0 |
| 20260506164511 | 50 | 167 | 0.0 | 3.0 | 0.00 | 0.00 | 0.00 | 43 | 1015.2 |
| 20260506163012 | 47 | 126 | 2.0 | 3.0 | 0.00 | 0.00 | 0.00 | 50 | 1015.3 |
| 20260506161502 | 46 | 124 | 1.0 | 2.0 | 0.00 | 0.00 | 0.00 | 51 | 1015.6 |
| 20260506160057 | 43 | 103 | 0.0 | 2.0 | 0.00 | 0.00 | 0.00 | 55 | 1015.8 |
| 20260506154609 | 41 | 124 | 1.0 | 3.0 | 0.00 | 0.00 | 0.00 | 57 | 1016.2 |
| 20260506153052 | 40 | 121 | 0.0 | 2.0 | 0.00 | 0.00 | 0.00 | 56 | 1016.5 |
| 20260506151546 | 39 | 110 | 0.0 | 3.0 | 0.00 | 0.00 | 0.00 | 58 | 1016.6 |
| 20260506150042 | 37 | 201 | 1.0 | 3.0 | 0.00 | 0.00 | 0.00 | 63 | 1016.8 |